Weather in Kailua-Kona

United States     19°38′24″N   155°59′44″W
temp.,
°C
wind,
m/s
gust,
m/s
humid.,
%
clouds,
%
prec.,
mm/h
press.,
hPa
HPBL,
m
18 may, tue
tue1823:00+21ssw237626 0.1 1018430
02:00+20ssw128017 0.6 1017193
05:00+20s12780 0.4 1017273
08:00+22ssw12676 0.4 1018596
11:00+23sw33636 0.0 1018919
14:00+23wsw436743 0.1 1017882
17:00+22sw327060 0.1 1017707
20:00+22sw227350 0.2 1018562
19 may, wed
wed1923:00+22ssw227531 0.1 1019543
02:00+21ssw327878 0.1 1018543
05:00+21w017869 0.3 1018369
08:00+22w11685 0.3 1019517
11:00+23w326516 0.0 1018773
14:00+23wsw326930 0.0 1017704
17:00+23sw437134 0.0 1016623
20:00+22wsw227682 0.1 1018544
20 may, thu
thu2023:00+22wnw217680 0.1 1019526
02:00+21nnw227855 0.1 1017384
05:00+22nw007423 0.1 1017208
08:00+22sw11682 0.1 1018541
11:00+24w326540 0.0 1017770
14:00+24wsw326839 0.0 1017726
17:00+23w326934 0.0 1016715
20:00+22wsw217550 0.1 1017440
21 may, fri
fri2123:00+22wsw227650 0.0 1018427
02:00+21ssw227751 0.1 1017454
05:00+21nw117946 0.3 1017305
08:00+22wsw227639 0.4 1018536
11:00+23wnw326842 0.1 1018784
14:00+24nw436522 0.1 1016835
17:00+23sw326812 0.0 1016556
20:00+22ssw33739 0.0 1018438
22 may, sat
sat2223:00+22wsw217615 0.0 1018388
02:00+21nnw227832 0.0 1017450
05:00+21nne33780 0.0 1017270
08:00+23w11630 0.0 1018396
11:00+24sw326011 0.0 1018758
14:00+24wsw315724 0.1 1017733
17:00+24wsw326085 0.2 1016576
20:00+23sw116788 0.4 1018387